Location: Mohawk View
(42.7837°N, 73.7885°W)
Time: 13:02:32
(UTC+00:00)

SeaSat 1 - Pass Details

Date: 17 June 2021
Orbit: 745 x 746 km, 108.0° (Epoch: 26 July)

Event Time Altitude Azimuth Distance (km) Brightness Sun altitude
Rises 07:58:37 0° 24° (NNE) 3,198 7.3 -11.6°
Reaches altitude 10° 08:00:54 10° 23° (NNE) 2,270 6.2 -11.3°
Maximum altitude 08:05:49 74° 299° (WNW) 780 2.5 -10.7°
Enters shadow 08:10:13 13° 216° (SW) 2,056 4.1 -10.2°
